Flag for Canada Weather past 2 weeks in Pictou County, Nova Scotia, Canada

Now
36 °F

Chilly.


Feels Like: 29 °F
Forecast: 33 / 36 °F
Wind: 8 mph from North

Location: Caribou Point

Current Time: Apr 28, 2015 at 4:16:37 PM

Latest Report: Apr 28, 2015 at 3:00 PM


Visibility: N/A

Pressure: 29.23 "Hg

Humidity: 96%

Dew point: 35 °F

Location of Pictou CountyLocation

Historic Weather in Pictou County — Graph

°F

Pictou County temperature yesterday

Maximum temperature yesterday: 36 °F (at 3:00 PM)
Minimum temperature yesterday: 33 °F (at 7:00 AM)
Average temperature yesterday: 34 °F

Past Weeks' High & Low Weather Summary

 TemperatureHumidityPressure
High53 °F (Apr 17, 3:00 PM)100% (Apr 23, 3:00 AM)30.37 "Hg (Apr 23, 3:00 AM)
Low23 °F (Apr 16, 6:00 AM)37% (Apr 13, 4:00 PM)29.23 "Hg (Apr 28, 3:00 PM)
Average35 °F83%29.87 "Hg
* Reported Apr 13 3:00 PM — Apr 28 3:00 PM, Pictou County, Weather by CustomWeather, © 2015

Note: Actual official high and low records may vary slightly from our data, if they occured in-between our weather recording intervals... More about our weather records

Advertising

Pictou County weather history for previous 24 hours

 ConditionsComfort  
Time TempWeatherWind HumidityBarometerVisibility
3:00 PM
Tue, Apr 28
36 °FChilly.8 mph96%29.23 "HgN/A
2:00 PM36 °FChilly.9 mph97%29.24 "HgN/A
1:00 PM35 °FChilly.15 mph99%29.25 "HgN/A
12:00 PM34 °FChilly.20 mph100%29.28 "HgN/A
11:00 AM31 °FChilly.21 mph100%29.33 "HgN/A
10:00 AM32 °FChilly.21 mph100%29.37 "HgN/A
9:00 AM32 °FChilly.21 mph100%29.42 "HgN/A
8:00 AM31 °FChilly.21 mph100%29.46 "HgN/A
7:00 AM31 °FChilly.20 mph100%29.49 "HgN/A
6:00 AM31 °FChilly.10 mph100%29.52 "HgN/A
5:00 AM34 °FChilly.10 mph91%29.55 "HgN/A
4:00 AM34 °FChilly.7 mph98%29.57 "HgN/A
3:00 AM34 °FChilly.2 mph97%29.59 "HgN/A
2:00 AM34 °FChilly.10 mph89%29.59 "HgN/A
1:00 AM34 °FChilly.13 mph91%29.60 "HgN/A
12:00 AM34 °FChilly.15 mph96%29.61 "HgN/A
11:00 PM
Mon, Apr 27
34 °FChilly.15 mph98%29.61 "HgN/A
10:00 PM35 °FChilly.16 mph97%29.61 "HgN/A
9:00 PM35 °FChilly.18 mph97%29.58 "HgN/A
8:00 PM35 °FChilly.15 mph97%29.55 "HgN/A
7:00 PM36 °FChilly.14 mph92%29.52 "HgN/A
6:00 PM36 °FChilly.13 mph95%29.48 "HgN/A
5:00 PM36 °FChilly.13 mph95%29.44 "HgN/A
4:00 PM35 °FChilly.17 mph95%29.41 "HgN/A
Weather by CustomWeather, © 2015

See weather overviewHow to use our weather pages